This demonstration page uses our WeatherBlox Daily Observations layout. Learn more.

Left ArrowRight Arrow

38.20091, -84.87328

Hourly Observations for July 16, 2021

Temp ( °F °C ) Dew Point ( °F °C ) Humidity (%) Winds ( mph kmh ) Pressure ( in mb ) Visibility ( mi km ) Precip ( " mm )
12:53 am 00:53 Clear 74 23.3 69 20.6 85 85 SSW 5 7 30.04 1017 10 16 0.00 0.00
1:53 am 01:53 Clear 73 22.8 69 20.6 87 87 SSW 6 9 30.03 1017 10 16 0.00 0.00
2:53 am 02:53 Clear 73 22.8 69 20.6 87 87 SSW 5 7 30.02 1017 10 16 0.00 0.00
3:53 am 03:53 Clear 73 22.8 69 20.6 87 87 S 5 7 30.01 1016 10 16 0.00 0.00
4:53 am 04:53 Clear 72 22.2 69 20.6 91 91 S 5 7 30.02 1017 10 16 0.00 0.00
5:53 am 05:53 Mostly Clear 73 22.8 69 20.6 87 87 S 6 9 30.03 1017 10 16 0.00 0.00
6:53 am 06:53 Sunny 72 22.2 70 21.1 94 94 SSW 6 9 30.04 1017 10 16 0.00 0.00
7:53 am 07:53 Sunny 73 22.8 70 21.1 90 90 SW 5 7 30.05 1018 10 16 0.00 0.00
8:53 am 08:53 Sunny 78 25.6 72 22.2 82 82 SSW 7 11 30.05 1018 10 16 0.00 0.00
9:31 am 09:31 Mostly Cloudy with Nearby Thunderstorms 81 27.2 73 22.8 77 77 SSW 14 22 30.05 1018 10 16 0.00 0.00
9:46 am 09:46 Mostly Cloudy 79 26.1 72 22.2 79 79 SSW 10 17 30.04 1017 10 16 0.00 0.00
9:53 am 09:53 Mostly Cloudy 79 26.1 72 22.2 79 79 SW 7 11 30.06 1018 10 16 0.00 0.00
10:53 am 10:53 Sunny 81 27.2 71 21.7 72 72 SW 13 20 30.06 1018 10 16 0.00 0.00
11:53 am 11:53 Mostly Sunny 85 29.4 74 23.3 70 70 SW 10 17 30.06 1018 10 16 0.00 0.00
12:53 pm 12:53 Mostly Sunny 86 30 74 23.3 67 67 SSW 13 20 30.04 1017 10 16 0.00 0.00
1:16 pm 13:16 Partly Cloudy with Nearby Thunderstorms 86 30 73 22.8 65 65 S 15 24 30.01 1016 10 16 0.00 0.00
1:29 pm 13:29 Mostly Cloudy with Rain 81 27.2 72 22.2 74 74 SSW 13 20 30.02 1017 3 4 0.08 2.03
1:33 pm 13:33 Mostly Cloudy with Heavy Rain 78 25.6 71 21.7 79 79 WSW 10 17 30.03 1017 1 2 0.17 4.32
1:42 pm 13:42 Mostly Cloudy with Light Rain 79 26.1 73 22.8 82 82 W 6 9 30.01 1016 2 3 0.20 5.08
1:50 pm 13:50 Mostly Cloudy 82 28 75 24 79 79 WNW 6 9 30.01 1016 10 16 0.20 5.08
1:53 pm 13:53 Mostly Cloudy with Nearby Thunderstorms 83 28.3 74 23.3 74 74 WNW 5 7 30.02 1017 10 16 0.20 5.08
2:02 pm 14:02 Mostly Cloudy with Thunderstorms 82 27.8 75 23.9 79 79 NW 5 7 30.01 1016 10 16 0.00 0.00
2:11 pm 14:11 Mostly Cloudy with Heavy Rain 79 26.1 72 22.2 79 79 undefined N/A 30.01 1016 2 3 0.07 1.78
2:19 pm 14:19 Mostly Cloudy with Thunderstorms 75 23.9 69 20.6 82 82 SE 9 15 30.02 1017 2 2 0.12 3.05
2:23 pm 14:23 Cloudy with Thunderstorms 76 24.4 69 20.6 79 79 ESE 7 11 30.01 1016 3 5 0.12 3.05
2:46 pm 14:46 Partly Cloudy with Nearby Thunderstorms 78 25.6 74 23.3 87 87 SE 3 6 30.00 1016 10 16 0.13 3.30
2:53 pm 14:53 Partly Cloudy with Thunderstorms 79 26.1 74 23.3 85 85 Calm 30.01 1016 10 16 0.13 3.30
2:58 pm 14:58 Mostly Cloudy with Strong Thunderstorms 77 25 72 22.2 85 85 undefined N/A 30.02 1016 2 2 0.13 3.30
3:00 pm 15:00 Mostly Cloudy with Strong Thunderstorms 75 23.9 70 21.1 84 84 S 16 26 30.01 1016 1 1 0.20 5.08
3:19 pm 15:19 Cloudy with Thunderstorms 73 22.8 70 21.1 90 90 WNW 10 17 30.02 1017 2 3 0.50 12.70
3:26 pm 15:26 Cloudy with Strong Thunderstorms 72 22.2 69 20.6 91 91 WNW 15 24 30.04 1017 1 2 0.65 16.51
3:33 pm 15:33 Cloudy with Strong Thunderstorms 71 21.7 68 20 90 90 WNW 9 15 30.06 1018 1 1 0.84 21.34
3:53 pm 15:53 Cloudy with Strong Thunderstorms 71 21.7 69 20.6 94 94 VRB 5 7 30.01 1016 1 2 1.30 33.02
3:59 pm 15:59 Cloudy with Thunderstorms 72 22.2 69 20.6 91 91 SSE 5 7 30.00 1016 2 3 0.02 0.51
4:03 pm 16:03 Cloudy with Light Rain 72 22.2 70 21.1 94 94 ESE 7 11 30.00 1016 3 5 0.02 0.51
4:13 pm 16:13 Mostly Cloudy 72 22.2 70 21.1 94 94 ESE 7 11 30.00 1016 10 16 0.02 0.51
4:53 pm 16:53 Mostly Cloudy with Light Rain 76 24.4 72 22.2 88 88 W 3 6 29.99 1016 7 11 0.03 0.76
5:53 pm 17:53 Sunny 76 24.4 73 22.8 91 91 SSE 5 7 29.96 1015 10 16 0.00 0.00
6:53 pm 18:53 Sunny 78 25.6 71 21.7 79 79 S 7 11 29.97 1015 10 16 0.00 0.00
7:53 pm 19:53 Sunny 78 25.6 72 22.2 82 82 S 12 19 29.96 1015 10 16 0.00 0.00
8:53 pm 20:53 Sunny 75 23.9 70 21.1 84 84 SSE 6 9 29.96 1015 10 16 0.00 0.00
9:53 pm 21:53 Clear 75 23.9 69 20.6 82 82 SSE 5 7 29.96 1014 10 16 0.00 0.00
10:53 pm 22:53 Mostly Clear 73 22.8 70 21.1 90 90 SSE 5 7 29.98 1015 10 16 0.00 0.00
11:01 pm 23:01 Partly Cloudy with Nearby Thunderstorms 75 23.9 70 21.1 84 84 S 12 19 29.97 1015 10 16 0.00 0.00
11:27 pm 23:27 Clear 76 24.4 69 20.6 79 79 S 9 15 29.96 1015 10 16 0.00 0.00
11:53 pm 23:53 Mostly Clear 75 23.9 69 20.6 82 82 S 7 11 29.98 1015 10 16 0.00 0.00

Powered by AerisWeather